Theta_e
347 346 342 342 343 343 344 346 347 347 348 351 351 351 349 347 348 349 352 353 354 353 349 348 351 352 350 351 352 349 350 352 352 351 351 352 354 355 356 355 355 355 355 354 354 354 354 353 353 356 356 351 351 348 343 344 343 345 350 346 344 349 349
349 346 342 342 343 343 343 345 346 347 348 350 351 351 350 348 349 351 352 354 355 353 351 348 349 352 352 351 352 351 350 352 353 353 353 354 354 354 355 356 355 355 355 355 355 356 355 354 352 353 355 353 352 349 345 346 344 344 351 349 345 347 346
350 348 343 342 342 342 343 344 346 348 347 349 351 351 351 350 350 352 352 355 356 354 353 351 348 351 354 353 353 353 351 352 353 353 354 354 354 354 354 355 355 355 355 354 355 356 355 354 353 351 351 353 356 355 351 350 348 346 349 346 345 350 349
349 349 345 342 342 342 343 345 346 348 347 348 350 350 351 351 351 353 354 355 356 355 354 352 349 351 354 354 354 354 353 352 353 352 353 354 354 354 354 354 354 354 355 355 355 355 355 356 356 352 349 348 352 356 353 351 352 354 352 346 346 352 352
349 349 347 342 342 343 343 345 346 348 348 348 349 348 350 351 352 354 354 354 355 354 354 353 351 351 353 353 354 354 353 353 354 354 353 353 354 354 354 355 354 353 353 355 355 355 355 356 357 356 352 347 348 353 352 350 352 354 352 348 349 354 354
349 349 349 344 343 343 344 345 346 348 348 348 348 348 349 351 351 352 353 354 354 353 353 353 352 352 352 353 353 353 353 353 353 354 354 354 354 354 355 355 355 354 353 354 355 355 356 355 355 356 356 353 352 354 353 353 354 354 354 352 351 352 353
349 349 349 346 344 343 344 345 346 348 348 348 348 348 348 350 350 351 351 352 353 352 352 352 351 352 352 352 353 353 353 353 354 353 354 354 355 355 355 355 354 354 353 354 354 355 356 355 354 355 356 355 354 354 354 355 355 355 357 355 352 349 349
349 350 348 346 345 344 345 346 345 347 348 348 349 349 348 349 350 351 351 352 352 351 351 351 351 352 352 352 353 353 353 353 353 352 352 353 354 354 355 355 354 354 354 354 354 355 356 356 355 355 355 354 354 354 355 357 356 355 356 356 354 353 352
347 351 349 346 346 346 347 347 346 348 348 347 348 349 349 350 351 351 352 352 352 351 351 351 351 352 353 353 354 354 354 354 353 353 352 351 352 353 353 354 354 354 354 354 354 354 355 355 354 355 356 355 355 356 355 357 357 355 355 357 356 355 354
345 349 350 347 349 350 349 349 347 346 348 348 348 349 349 350 351 351 353 353 353 353 352 352 352 353 354 355 356 355 354 354 354 354 353 351 351 352 352 353 353 354 354 354 353 353 354 354 354 356 357 356 356 356 354 355 357 356 355 356 356 355 353
346 347 349 350 350 350 349 349 346 344 346 348 349 350 350 351 352 353 353 354 355 355 355 354 354 354 355 356 356 356 355 355 354 354 353 353 352 352 352 352 352 353 353 353 352 352 352 353 353 356 357 356 356 355 352 353 356 356 355 354 355 356 355
350 349 350 351 351 350 349 349 348 346 346 349 353 352 353 353 353 355 354 353 355 356 355 355 355 356 357 356 356 356 356 355 354 354 353 353 353 353 353 352 351 351 352 353 353 351 352 352 353 354 356 357 356 355 353 352 354 357 356 353 353 355 355
353 352 351 352 351 350 349 348 350 351 350 353 356 354 354 353 352 355 355 352 354 355 353 353 352 353 354 352 352 356 356 355 354 354 353 354 355 354 354 353 352 351 351 351 352 352 352 352 352 352 354 355 355 355 355 353 353 356 356 353 353 353 352
353 353 351 351 351 349 349 350 352 354 354 357 358 356 356 354 353 357 356 353 355 356 355 354 353 351 348 345 346 353 356 355 354 354 354 354 355 355 355 354 353 352 351 351 352 353 353 351 351 352 352 353 354 354 354 354 355 354 351 350 352 352 350
352 353 350 349 350 350 350 352 355 356 356 358 359 358 358 357 357 359 358 357 359 359 357 356 355 354 351 348 347 349 355 357 355 356 356 357 358 358 357 355 354 353 353 352 352 353 353 352 351 351 351 352 352 352 352 353 355 354 351 349 350 351 351
352 353 351 349 350 351 352 352 354 356 357 358 359 359 359 359 359 360 360 360 360 360 359 357 357 358 356 356 351 348 354 357 355 357 360 359 358 355 352 352 352 353 354 354 354 354 354 353 352 351 351 352 351 350 351 352 353 353 351 350 351 351 350
352 353 352 350 348 350 353 353 352 354 355 357 359 359 359 359 359 359 360 359 357 358 357 354 355 355 355 358 357 353 355 354 352 354 356 354 351 348 345 344 346 349 352 354 355 355 355 355 354 353 352 351 350 350 351 352 352 352 351 351 351 350 349
350 351 351 350 349 350 352 352 352 355 357 357 357 358 359 359 359 359 359 358 356 357 355 352 352 352 352 356 359 358 355 351 348 349 349 348 348 347 346 345 344 345 347 350 353 355 356 355 355 354 354 353 350 349 349 351 351 351 351 351 351 350 348
348 347 349 349 350 351 351 351 352 354 355 356 357 357 357 358 359 360 359 358 357 356 354 353 352 351 352 354 357 358 355 349 347 349 348 348 349 349 349 348 346 344 343 345 349 354 356 355 354 355 355 354 351 348 349 350 350 351 351 351 350 349 348
348 347 347 348 349 350 350 350 351 352 353 355 357 357 356 355 356 357 357 357 356 355 354 354 354 352 353 352 352 356 356 350 347 349 350 351 352 351 350 349 348 345 344 344 347 353 356 355 356 356 353 351 350 348 349 350 350 351 351 350 349 349 349
347 348 347 348 348 348 349 349 351 351 352 353 355 355 355 354 354 355 355 355 356 355 354 355 355 354 356 355 352 354 357 353 348 349 351 352 352 351 348 347 347 347 346 346 348 353 355 354 355 355 351 350 351 348 347 349 349 349 350 350 349 349 348
345 344 345 346 346 347 348 348 348 349 350 352 353 353 353 353 353 354 355 354 354 354 354 355 355 355 356 357 354 354 355 353 350 352 353 353 352 350 347 346 348 349 348 349 351 354 353 350 350 352 352 354 355 351 349 351 350 349 349 349 348 347 347
343 342 343 344 344 346 347 346 346 347 348 350 351 351 351 352 352 353 354 353 353 354 354 353 354 354 354 354 353 353 354 354 354 354 354 353 351 350 349 347 347 348 349 350 351 352 350 350 350 351 351 352 353 353 352 351 349 348 348 347 347 346 347
341 341 343 343 343 344 345 345 345 347 348 348 349 349 350 350 351 352 352 352 352 353 353 352 352 352 352 353 353 353 354 355 354 353 352 350 348 348 349 349 347 347 348 348 350 350 351 352 351 349 348 348 349 351 350 348 348 348 348 348 348 348 348
340 340 341 341 342 344 345 346 346 346 347 347 347 348 348 348 349 350 350 350 350 350 351 351 351 351 350 351 353 353 353 353 353 351 349 347 346 347 349 349 346 346 346 347 349 352 353 351 350 350 350 349 349 349 348 347 348 349 348 348 348 347 347
339 339 339 340 341 344 345 346 346 346 347 346 346 347 347 347 348 348 348 348 347 347 348 348 348 349 349 350 351 351 351 350 350 349 348 347 348 348 348 348 347 347 348 348 349 351 352 350 350 350 350 349 349 348 347 347 348 347 346 345 344 343 342
338 338 338 338 339 341 343 344 344 344 344 344 345 346 346 346 346 346 345 345 345 345 345 345 345 346 346 347 347 348 349 349 347 347 347 348 348 347 347 347 347 347 348 348 348 349 349 349 349 348 347 347 347 346 346 345 344 342 340 339 338 337 337
337 338 338 338 338 339 340 341 341 340 340 341 342 343 344 345 345 344 343 343 343 343 343 343 344 344 344 344 345 345 346 346 345 345 346 345 345 345 345 345 346 346 346 345 345 345 345 345 346 345 344 343 342 342 341 339 337 336 334 333 332 332 331
338 337 338 338 337 337 338 338 338 338 338 339 340 342 343 343 342 341 340 341 341 341 342 342 342 343 344 344 344 344 344 344 344 344 344 343 343 344 344 343 343 343 342 341 341 341 341 341 340 340 339 338 336 334 333 333 334 333 332 330 329 327 326
337 336 337 336 336 337 337 337 338 338 338 338 339 339 339 339 338 338 337 337 338 339 340 341 342 342 343 343 342 342 342 342 342 342 341 340 340 341 340 340 341 340 339 338 337 336 336 337 337 337 336 334 333 332 332 333 333 330 326 325 324 322 321
335 334 334 334 335 335 336 336 337 336 336 337 337 336 336 336 335 334 334 334 336 337 337 339 340 340 339 339 340 340 340 340 340 339 338 338 338 338 338 337 337 336 335 335 335 335 336 336 336 335 335 335 335 333 329 325 323 322 318 315 313 313 312
332 331 331 331 331 333 334 334 333 332 331 331 331 331 330 330 330 329 329 330 332 332 333 334 334 335 335 334 334 334 334 334 333 333 334 334 334 335 334 334 333 332 332 332 332 331 331 331 331 331 331 331 329 324 319 319 324 326 320 312 307 307 307
329 328 328 327 327 329 329 329 327 326 325 325 324 323 321 320 321 320 320 320 319 319 320 321 321 322 323 325 324 323 323 322 322 323 324 326 327 327 326 328 330 330 330 331 331 330 328 326 326 329 330 328 322 320 323 327 327 324 317 309 306 307 306
328 327 327 327 327 327 327 327 326 326 326 327 327 326 324 323 322 321 321 321 318 315 313 312 312 312 313 314 314 313 313 313 314 316 318 319 320 318 317 320 323 324 326 326 327 328 327 323 320 323 327 326 320 319 324 325 319 313 310 308 307 308 307
328 327 327 327 326 326 327 328 328 328 328 328 328 327 327 326 326 326 326 326 325 323 320 317 316 315 315 314 313 313 313 312 311 311 311 312 313 312 311 311 312 314 316 316 316 317 317 315 314 315 319 319 314 312 315 315 311 309 309 308 308 308 307
328 328 327 326 325 326 327 329 329 329 328 328 328 328 327 327 327 327 327 327 326 325 325 324 323 322 321 320 319 318 318 316 313 312 312 312 312 311 311 311 311 311 312 311 311 311 311 311 311 312 312 312 310 310 310 310 309 309 309 308 308 308 307
328 328 327 326 326 326 327 327 328 328 328 328 328 328 328 328 328 328 329 329 327 326 326 326 326 325 324 322 320 319 317 315 314 314 314 313 313 313 312 312 312 312 312 312 312 311 311 311 311 311 311 311 311 311 310 310 309 309 308 308 309 308 307
327 328 327 327 327 327 327 327 327 327 327 327 327 327 326 327 327 328 329 329 329 329 328 327 327 326 325 324 323 322 321 319 318 318 317 316 317 319 320 318 316 314 313 313 313 312 312 312 311 311 311 311 310 311 310 310 310 309 309 308 308 307 308
Wind_Speed
28 27 26 26 25 25 24 24 23 23 22 21 21 20 20 21 21 21 21 22 22 22 22 21 20 19 19 18 17 17 16 15 14 14 13 12 10 10 9 9 9 9 8 7 7 8 8 9 9 8 8 8 7 7 7 6 6 5 5 7 6 6 6
24 26 25 26 26 25 24 24 24 23 23 22 21 21 20 21 22 21 20 21 22 22 22 22 22 20 19 19 18 18 18 16 15 14 13 13 12 12 11 10 9 10 9 8 8 8 8 9 9 9 9 8 7 7 7 7 7 6 6 8 7 7 7
24 24 24 26 26 26 26 25 24 23 23 23 21 21 21 20 21 21 20 21 21 22 21 21 22 21 20 19 18 18 18 18 16 16 14 13 13 12 12 11 10 10 9 9 9 8 8 8 9 9 9 8 7 7 7 6 7 6 7 9 7 7 8
29 26 25 26 26 27 27 25 25 24 23 23 22 21 21 20 20 20 19 20 21 22 22 22 22 21 20 19 19 18 18 18 17 16 15 14 13 12 12 12 11 10 10 10 10 9 8 8 9 9 9 9 9 9 8 8 7 7 8 9 7 7 9
26 26 25 26 26 26 27 26 25 25 23 22 22 21 21 20 19 20 20 19 20 21 21 21 21 21 20 20 19 18 18 19 18 16 16 14 13 13 12 12 12 11 11 10 10 10 10 10 9 9 9 9 9 9 9 8 8 9 10 9 7 7 8
21 23 23 24 26 26 26 27 26 25 24 23 22 21 20 21 20 20 20 19 19 20 21 21 20 20 21 20 18 18 18 18 18 17 16 15 15 14 13 13 12 12 12 11 11 11 11 11 10 9 9 8 7 8 8 8 7 8 9 9 9 8 7
18 23 24 22 25 27 26 27 26 25 24 23 22 22 21 21 21 20 19 20 20 20 20 21 21 20 20 19 18 18 17 17 17 18 17 16 15 15 14 13 13 12 12 12 11 11 11 11 11 10 10 9 9 8 8 9 10 9 9 11 11 9 8
16 21 26 23 23 26 26 26 27 25 24 24 23 22 22 21 21 20 20 20 20 20 20 20 20 20 20 19 19 18 17 17 17 17 17 16 16 16 14 14 13 13 12 12 12 12 11 11 10 10 11 10 10 10 8 9 11 11 10 11 11 10 9
18 15 22 24 21 24 26 25 25 24 24 25 23 23 23 21 21 21 20 20 20 20 20 20 20 20 20 19 19 18 18 17 16 16 16 16 16 16 15 14 13 13 13 12 12 11 11 11 11 10 11 10 10 11 11 10 11 11 10 11 11 11 10
20 15 20 25 21 22 25 25 25 24 23 24 24 23 23 22 21 21 20 20 19 19 20 20 19 20 20 20 18 18 18 17 16 16 16 16 16 15 15 14 13 13 13 12 12 11 11 11 11 10 11 11 11 13 13 11 10 10 10 11 12 12 11
19 18 21 23 20 21 24 25 26 26 24 23 23 23 23 23 22 21 21 20 19 19 19 19 19 19 20 21 19 17 17 17 17 16 16 16 16 15 15 14 14 13 13 12 12 12 12 12 11 11 12 12 12 13 13 11 11 11 11 12 10 10 11
14 18 20 19 18 20 22 24 24 25 26 25 23 23 23 23 22 21 22 22 21 20 20 20 20 19 20 21 19 18 18 18 17 17 17 17 16 15 14 14 14 13 13 13 12 12 12 12 12 12 12 12 12 12 12 12 11 11 11 11 10 11 12
10 15 18 18 18 20 21 23 24 24 25 24 23 23 23 23 23 23 24 24 23 22 22 22 21 21 22 21 19 18 19 18 18 17 17 17 16 16 15 14 14 14 14 13 13 13 13 13 13 13 13 13 12 12 13 13 11 11 12 11 10 12 13
8 12 16 18 20 21 21 22 22 23 23 22 22 23 23 23 24 23 23 23 22 22 22 22 22 23 23 21 18 19 19 18 18 17 17 16 16 16 16 14 13 13 13 13 13 14 14 14 14 14 13 13 13 13 13 12 12 13 14 12 11 13 13
6 7 12 17 19 21 21 20 20 22 22 21 20 21 20 20 21 22 21 21 20 21 22 21 22 22 22 21 20 19 18 18 17 16 16 16 16 16 15 15 14 13 12 13 14 13 14 14 14 14 14 15 15 14 14 14 15 16 15 13 12 12 11
3 3 8 14 17 18 19 19 18 20 20 20 19 19 19 19 19 19 20 20 20 21 21 21 21 21 21 21 21 19 18 19 19 17 17 19 19 19 18 17 16 14 12 13 13 13 13 13 14 14 14 15 14 12 13 15 16 16 14 12 12 12 12
3 1 4 11 16 17 19 20 18 18 19 19 19 19 19 19 19 19 19 20 20 20 20 21 21 20 20 20 19 19 20 21 21 21 22 23 24 23 21 20 19 17 16 15 14 14 13 13 14 14 13 14 13 10 10 14 15 15 13 12 12 13 12
7 4 1 6 10 12 15 17 17 16 17 17 18 18 18 18 18 18 18 18 18 19 19 19 19 19 20 20 19 20 22 23 22 22 23 23 23 22 21 21 21 20 20 20 17 14 14 13 14 13 12 15 16 12 10 11 12 13 13 12 13 14 13
12 11 5 3 4 7 9 10 11 13 14 14 14 14 15 16 15 15 16 16 17 17 17 16 16 17 18 19 20 21 22 23 22 21 21 21 22 22 21 20 22 22 22 22 19 16 15 15 14 13 14 16 17 15 12 10 9 11 13 14 15 16 16
11 14 11 6 6 7 8 6 3 5 8 10 10 10 11 12 12 12 13 14 14 14 14 13 14 15 15 18 20 21 21 22 22 21 21 21 21 20 19 18 20 21 22 22 20 17 17 16 13 14 17 17 15 16 16 13 11 13 15 16 18 18 18
4 9 13 12 10 10 10 7 5 6 8 9 10 10 11 11 11 10 10 12 12 13 13 13 14 14 14 16 18 19 20 21 22 21 21 21 20 20 19 19 20 21 23 23 20 18 20 19 15 14 15 15 15 18 18 16 15 17 19 20 20 20 19
1 2 11 15 12 11 11 11 10 11 12 11 10 10 12 12 11 10 9 10 12 12 12 13 14 13 13 15 17 19 21 22 20 19 20 20 20 19 19 21 22 23 23 22 20 20 21 20 17 16 15 12 12 14 15 16 18 19 19 19 19 18 18
1 2 8 13 12 11 13 13 12 12 12 10 9 9 11 12 12 11 11 12 13 13 13 15 16 16 15 16 17 19 20 20 20 20 18 17 17 16 17 20 23 21 19 20 22 21 20 18 18 19 18 15 14 15 14 16 17 18 17 17 17 17 17
3 4 7 11 12 12 13 13 12 11 10 10 9 9 10 12 13 12 12 12 13 14 15 16 17 17 17 16 16 17 19 20 21 21 18 17 17 16 17 20 22 21 19 20 21 19 18 19 20 20 18 17 16 16 15 15 16 16 17 17 17 18 18
4 5 6 9 12 13 13 12 12 11 10 10 10 9 9 10 11 11 11 11 11 12 13 13 13 15 16 15 14 16 16 17 17 15 16 20 21 18 17 17 18 20 22 22 19 17 17 19 21 20 18 16 15 15 14 14 15 16 17 18 18 17 17
6 6 6 9 13 15 13 11 11 12 12 12 12 12 11 10 11 11 11 9 8 8 8 9 11 13 15 16 16 16 14 14 13 12 15 20 19 17 18 17 18 20 22 22 20 19 18 18 18 16 14 12 13 13 13 13 14 14 14 14 13 13 12
8 7 8 11 17 19 18 16 15 15 14 14 14 14 14 13 12 12 11 9 9 8 6 5 6 8 10 13 15 14 12 12 10 10 13 15 14 14 16 17 19 20 20 20 18 17 16 14 13 13 10 7 7 8 8 8 8 8 8 7 7 7 7
11 10 10 13 17 20 22 24 23 21 18 17 17 16 15 14 15 14 13 14 14 12 11 9 7 6 6 6 7 8 7 6 6 6 8 7 6 8 9 10 12 13 12 10 9 9 9 8 8 8 6 2 2 2 2 2 1 1 2 3 4 5 6
12 12 12 13 15 17 21 25 26 24 22 22 23 21 17 17 20 20 19 20 19 16 15 15 14 13 14 14 13 14 14 12 10 9 7 5 5 5 5 5 6 6 5 4 4 5 6 6 5 4 3 4 4 5 4 3 2 0 2 3 5 6 7
15 14 15 16 17 18 22 24 25 25 25 25 26 25 23 22 24 24 24 24 22 20 19 19 18 18 18 19 18 18 17 17 16 13 11 11 9 8 8 9 9 9 9 10 10 10 11 11 10 8 8 8 7 6 4 2 2 3 4 5 7 8 9
17 17 17 18 19 22 26 28 28 28 28 28 28 28 27 26 26 27 26 24 23 22 21 21 21 21 21 21 19 17 17 17 17 16 15 14 14 14 14 14 13 13 12 12 12 10 9 8 7 6 7 7 5 6 7 6 5 5 5 5 7 9 9
18 19 19 19 21 24 30 33 33 33 32 30 29 29 28 27 26 26 25 23 22 22 22 22 22 23 23 23 21 19 18 18 17 16 14 13 13 12 11 10 11 12 12 10 9 7 6 6 6 5 5 5 3 4 5 5 4 3 5 6 7 8 8
18 19 20 21 22 23 27 30 32 32 31 29 27 27 27 27 27 27 27 25 24 24 24 24 25 25 24 23 22 21 20 19 18 16 14 13 12 10 8 9 11 12 12 10 9 8 7 7 7 5 4 3 1 2 2 1 2 6 7 6 6 6 6
18 19 20 21 21 22 23 25 27 27 27 25 23 22 22 24 24 24 25 24 23 24 25 26 27 26 24 23 22 22 21 19 18 17 15 14 13 11 11 11 11 10 10 9 9 8 7 6 6 6 5 3 3 5 5 5 6 6 4 4 4 5 6
19 20 21 21 22 23 23 23 24 25 25 24 22 21 21 21 21 21 21 20 20 20 21 22 23 22 20 20 20 20 19 18 17 17 15 15 13 12 12 12 11 10 9 8 8 7 6 6 6 6 5 4 3 4 5 5 4 3 3 4 4 5 6
18 20 21 22 24 24 23 22 24 26 25 24 23 22 21 20 19 19 18 18 18 18 18 18 18 17 16 16 16 15 15 15 16 16 15 14 13 13 12 11 10 10 9 8 7 6 5 5 5 4 3 2 2 1 1 2 3 4 4 5 6 6 6
15 19 21 23 24 24 23 22 23 24 24 22 21 20 20 19 18 17 17 17 16 16 17 16 16 16 15 15 15 15 15 16 16 16 15 14 13 13 13 12 11 9 9 8 7 6 6 5 5 4 3 3 3 3 3 4 4 5 6 6 6 6 6
15 19 22 23 23 23 23 22 22 22 22 21 21 20 20 19 18 17 17 17 15 15 15 14 14 15 14 14 15 15 14 14 14 13 13 12 12 11 10 9 9 9 9 8 7 7 7 6 6 6 5 5 5 5 5 5 6 6 6 6 6 6 6
Wind_Direction
204 204 190 187 187 184 184 182 181 182 180 181 180 181 184 183 182 181 181 185 187 190 192 191 190 192 194 195 198 200 200 200 203 207 210 209 207 206 207 209 207 205 204 203 203 200 197 200 195 196 218 229 224 231 236 234 236 235 248 254 243 246 251
204 206 194 186 187 185 185 183 182 182 181 182 182 181 184 184 182 183 184 185 188 191 194 194 193 193 195 196 199 201 201 200 202 204 206 209 210 208 206 207 208 208 206 200 197 199 202 206 204 202 215 224 225 239 242 237 242 233 234 252 254 258 261
201 210 202 189 186 185 185 185 182 182 182 183 183 182 184 184 183 184 185 186 189 191 192 196 197 195 196 196 199 202 203 201 203 205 206 210 213 212 211 210 209 211 210 206 203 204 209 212 215 214 213 209 211 236 245 239 250 250 244 254 255 254 261
199 214 209 190 186 186 185 186 184 183 184 184 185 185 185 185 184 186 188 189 191 191 191 196 199 197 197 199 200 202 204 202 204 208 209 211 212 211 213 214 214 212 211 213 210 208 208 208 217 225 222 212 205 216 228 226 230 238 246 257 254 248 260
199 216 214 192 186 186 185 186 185 184 185 185 186 186 185 186 187 188 191 192 193 194 194 195 197 197 198 201 201 203 206 204 204 207 209 211 212 211 213 214 215 214 211 212 212 211 208 202 208 223 231 229 218 220 232 234 228 231 243 255 250 245 259
193 207 214 198 187 186 187 188 186 185 186 185 186 187 187 188 190 191 192 194 195 196 196 196 196 198 199 200 201 204 208 207 205 206 208 210 211 212 214 213 213 214 212 211 211 214 216 212 210 216 225 231 227 225 230 232 231 235 246 255 251 243 243
190 199 206 201 191 187 188 189 187 186 186 186 187 188 189 191 193 193 192 195 196 196 197 197 197 198 199 200 202 203 205 206 207 208 208 209 211 212 213 214 212 212 213 212 212 213 218 220 216 216 219 223 226 225 224 224 226 227 234 247 256 252 239
191 199 200 200 196 191 189 189 188 186 187 188 188 188 191 192 193 194 193 194 197 198 199 199 199 200 200 200 203 204 205 206 207 209 210 211 213 214 213 213 213 211 212 214 214 214 216 219 220 219 221 224 227 226 222 227 234 232 231 241 253 256 249
191 199 200 200 199 191 189 188 186 187 188 190 191 190 192 194 194 195 195 195 197 198 199 200 200 202 202 203 205 206 206 208 208 209 211 212 214 215 215 214 213 213 213 215 217 218 217 220 222 221 220 221 225 226 223 230 239 237 234 238 244 249 248
195 198 197 197 198 191 190 190 190 191 191 192 194 193 193 194 195 196 196 196 197 198 199 200 200 202 205 205 206 208 209 210 210 211 212 214 216 217 216 216 215 215 217 218 220 222 222 222 221 219 221 221 223 227 227 227 235 239 238 241 246 250 251
196 201 199 196 198 196 194 196 199 201 198 196 196 195 194 194 195 196 197 198 198 198 198 199 200 202 205 207 207 208 210 211 212 213 214 215 217 218 218 217 216 217 219 220 221 222 222 221 218 218 224 225 226 232 235 229 230 239 239 236 242 252 256
191 201 205 203 202 203 201 198 199 201 199 198 197 195 193 194 196 198 200 202 202 201 202 201 201 201 205 209 209 208 212 213 213 215 215 216 217 218 218 218 217 218 219 220 221 221 221 220 219 219 223 228 229 233 241 240 233 236 241 238 237 246 250
187 197 205 208 204 204 205 200 195 195 195 194 196 197 196 198 202 203 206 208 205 206 210 209 208 209 212 216 214 210 212 214 214 215 215 216 216 215 216 218 219 219 219 219 219 219 219 220 221 221 223 230 234 233 240 246 240 233 238 244 246 248 248
185 196 205 211 206 200 201 199 193 190 191 192 194 197 197 199 202 204 208 211 205 204 210 212 213 217 222 226 221 213 213 214 214 215 213 215 217 215 215 218 219 220 220 220 221 222 222 221 222 224 224 227 232 233 237 242 242 239 239 241 247 251 250
186 199 208 212 209 200 197 196 192 188 189 190 191 193 194 194 197 201 207 210 204 202 208 210 211 216 221 226 226 219 213 211 211 212 210 211 211 210 214 217 220 223 223 222 223 225 226 225 224 227 227 229 234 237 236 235 237 243 246 246 250 255 255
172 197 209 211 213 208 201 198 196 192 190 191 191 190 191 192 194 198 204 208 205 203 208 211 211 213 215 220 225 224 216 211 209 206 206 208 208 212 218 219 218 219 222 225 225 226 228 228 226 226 228 235 244 248 243 236 237 246 252 251 252 259 267
134 127 211 211 212 213 205 200 202 199 193 192 191 190 191 193 196 198 203 210 210 208 212 215 216 217 217 218 220 219 217 217 214 210 213 218 220 222 226 227 223 218 216 219 221 225 227 226 226 227 229 234 240 247 243 233 235 245 248 245 245 252 264
143 129 179 213 208 206 197 195 206 207 194 187 186 188 191 194 198 201 203 210 212 211 215 221 222 221 220 218 215 215 222 226 224 223 226 227 228 228 229 231 231 225 221 220 220 223 226 226 226 227 231 237 238 243 249 241 238 244 244 242 245 250 256
153 143 144 189 197 196 190 189 200 198 184 174 172 178 187 189 192 197 200 205 209 212 217 221 222 221 220 217 214 216 226 231 229 228 230 230 231 232 231 233 234 231 228 226 223 222 224 226 226 223 228 240 243 244 251 250 242 245 245 244 249 255 260
158 147 148 163 184 198 203 205 184 146 146 146 148 160 177 185 191 196 200 203 205 211 215 214 216 218 217 220 220 216 222 232 231 228 229 228 226 224 223 226 231 231 230 229 225 222 222 219 217 221 229 237 239 237 244 249 245 246 249 251 258 265 270
171 149 145 155 181 200 201 197 164 134 143 148 151 165 173 178 188 193 197 201 200 205 210 209 213 215 212 220 224 216 215 228 231 227 227 225 221 221 225 230 234 230 228 227 222 219 223 219 213 223 232 237 238 234 236 245 250 251 254 259 265 273 277
257 151 136 146 170 189 189 188 177 164 166 164 165 176 176 175 184 186 189 195 194 199 209 210 210 212 212 218 223 218 218 227 228 223 222 221 220 225 228 230 233 228 221 219 216 218 228 229 224 223 219 220 234 235 231 240 250 255 261 267 272 275 277
118 120 129 137 148 155 164 179 182 174 171 170 169 170 170 174 180 180 181 183 183 187 197 201 201 204 209 216 224 224 221 220 216 208 208 215 220 224 224 225 230 228 219 216 217 222 232 235 228 225 218 214 225 231 233 243 254 261 266 270 272 274 274
105 116 123 131 137 137 139 150 160 160 165 175 174 165 167 176 180 184 188 189 190 194 197 200 203 205 208 212 220 222 215 213 212 206 209 227 237 237 232 230 232 233 230 227 222 220 227 232 229 229 226 225 231 237 244 254 263 268 272 274 275 276 278
103 117 119 125 131 129 125 128 134 137 147 163 166 157 156 162 168 179 187 190 196 201 203 209 213 216 217 216 221 228 227 227 229 225 227 239 244 242 234 229 228 227 229 228 216 202 209 221 225 225 222 221 231 244 254 261 269 276 281 284 285 284 284
98 112 119 123 125 123 124 130 133 135 144 155 158 153 148 147 152 160 163 166 175 183 196 214 222 224 225 223 226 236 238 237 239 236 229 228 230 229 224 219 217 216 218 219 210 199 204 213 219 225 225 223 233 248 260 268 279 288 292 294 295 294 292
94 93 105 119 123 124 127 131 131 130 136 142 142 140 141 145 145 139 134 135 135 133 137 166 203 216 218 221 228 232 235 242 248 237 222 214 208 207 205 203 207 209 210 209 202 197 203 210 218 233 239 234 239 256 271 277 285 295 297 300 303 301 301
98 96 102 112 117 119 121 123 121 118 117 120 122 122 128 137 135 128 123 120 112 106 105 104 105 114 130 166 197 193 190 208 212 207 216 216 202 198 191 187 196 201 201 202 195 192 201 208 219 235 247 256 243 230 229 231 236 272 291 302 302 299 301
105 101 101 106 111 114 116 116 116 114 112 113 115 116 121 127 125 121 117 111 105 105 106 105 105 111 121 130 137 137 140 146 148 159 176 169 164 184 182 168 175 176 169 171 170 165 158 143 140 148 123 99 106 117 127 136 136 245 295 306 306 304 303
113 109 105 105 106 110 113 112 112 113 114 114 116 117 119 120 117 114 112 110 109 111 111 111 114 116 117 118 120 122 125 128 129 129 125 119 124 133 125 115 114 111 108 108 111 114 111 105 103 104 103 99 90 70 52 34 327 310 315 317 307 301 300
117 115 112 109 108 112 115 114 114 113 113 114 116 115 114 113 111 110 111 113 115 115 114 117 119 118 114 112 112 113 114 116 115 112 110 111 114 113 107 104 106 106 102 101 103 105 103 99 96 97 102 98 69 15 355 355 350 336 336 331 312 303 303
119 117 115 113 113 117 120 119 116 113 110 110 112 113 112 113 112 111 111 113 114 113 113 114 114 114 114 113 112 111 109 107 105 104 106 110 111 110 109 109 104 95 86 81 85 90 97 100 93 81 82 82 45 339 346 14 15 311 296 310 313 310 316
118 117 115 115 115 116 118 116 113 109 105 104 104 105 106 106 106 105 106 105 104 105 106 106 106 106 109 111 112 112 111 107 104 101 98 95 93 96 111 120 113 102 95 91 85 80 85 96 101 99 92 90 128 155 105 85 242 253 273 300 314 317 331
118 116 116 118 118 116 115 113 111 108 106 105 104 104 104 104 104 104 102 100 98 99 101 102 103 104 106 108 110 111 111 110 110 109 108 109 107 105 113 123 125 121 117 116 114 112 115 124 133 139 139 152 185 173 166 202 239 256 286 311 322 333 343
123 121 118 118 119 117 115 113 112 110 108 108 109 109 108 107 106 105 103 101 101 100 97 96 97 98 99 101 104 105 104 105 107 107 107 110 112 110 110 114 118 119 120 124 127 129 133 138 140 145 150 165 190 182 184 213 252 300 321 323 336 344 345
126 122 119 118 117 117 116 114 112 111 109 109 110 109 106 105 104 102 101 101 102 102 100 98 96 94 94 96 98 100 103 106 108 107 106 106 106 106 106 106 107 110 113 117 118 116 115 114 115 122 131 136 138 140 241 293 329 341 338 342 347 343 343
127 119 116 116 116 116 116 114 111 109 108 109 109 107 106 106 105 104 104 101 100 99 100 99 97 97 99 101 102 100 101 103 102 101 103 105 103 102 100 97 96 95 93 91 92 89 84 79 74 71 60 42 34 23 3 357 357 351 347 347 344 341 346
127 119 114 114 114 114 113 110 108 106 105 105 105 105 104 104 103 105 105 103 100 97 94 94 94 94 95 96 96 94 93 93 90 88 89 89 89 90 86 77 73 74 75 73 66 60 57 51 44 42 36 22 13 9 4 360 355 350 349 348 344 345 350